Regional Weather Roundup
Issued by NWS Green Bay, WI

Home | Current Version | Previous Version | Text Only | Print | Product List | Glossary On
Versions: 1 2 3 4 5 6 7 8 9 10 11 12 13 14 15 16 17 18 19 20 21 22 23 24 25 26 27 28 29 30 31 32 33 34 35 36 37 38 39 40 41 42 43 44 45 46 47 48 49 50
000
ASUS43 KGRB 251001
RWRGRB

NORTH-CENTRAL AND NORTHEAST WISCONSIN REGIONAL WEATHER ROUNDUP
NATIONAL WEATHER SERVICE GREEN BAY WI
500 AM CDT MON SEP 25 2017

WIZ005-009-010>012-018-019-251100-
NORTH CENTRAL WISCONSIN

CITY           SKY/WX    TMP DP  RH WIND       PRES   REMARKS
IRONWOOD       CLOUDY    69  63  81 SW3       29.93R
MANITOWISH WTR NOT AVBL
ARBOR VITAE    NOT AVBL
EAGLE RIVER    NOT AVBL
LAND O LAKES   NOT AVBL
RHINELANDER    CLEAR     67  61  81 SW5       29.99R
PHILLIPS       CLOUDY    63  62  96 CALM      29.96S
ANTIGO         NOT AVBL
TOMAHAWK       NOT AVBL
MERRILL        NOT AVBL
$$

WIZ013-073-251100-
NORTHEAST WISCONSIN

CITY           SKY/WX    TMP DP  RH WIND       PRES   REMARKS
IRON MOUNTAIN  CLEAR     66  60  81 SE3       29.96R
MARINETTE      CLEAR     65  62  90 CALM      29.97S
$$

WIZ017-030-035>037-045-251100-
CENTRAL WISCONSIN

CITY           SKY/WX    TMP DP  RH WIND       PRES   REMARKS
MEDFORD        NOT AVBL
WAUSAU         CLEAR     63  60  90 E5        29.96R
MOSINEE        NOT AVBL
MARSHFIELD     CLEAR     63  58  83 SW3       29.96R
WISC RAPIDS    PTCLDY    68  61  78 S3        29.97S
STEVENS POINT  NOT AVBL
WAUPACA        NOT AVBL
SHAWANO        NOT AVBL
CLINTONVILLE   NOT AVBL
WAUTOMA        CLEAR     60  59  96 CALM      29.98S
$$

WIZ038-039-048-051-251100-
FOX VALLEY

CITY           SKY/WX    TMP DP  RH WIND       PRES   REMARKS
NWS GREEN BAY  CLEAR     68  61  78 S5        29.97S
APPLETON       NOT AVBL
OSHKOSH        CLEAR     65  60  84 S7        29.97S
FOND DU LAC    CLEAR     65  59  81 S5        29.98F
$$

WIZ022-050-052-251100-
EAST CENTRAL WISCONSIN

CITY           SKY/WX    TMP DP  RH WIND       PRES   REMARKS
EPHRAIM        NOT AVBL
WASHINGTON ISL NOT AVBL
STURGEON BAY   CLEAR     69  61  75 S9        29.98S
MANITOWOC      CLEAR     61  60  97 CALM      29.99S FOG
SHEBOYGAN      CLEAR     60  60 100 CALM      29.99S
$$

LMZ563-521-522-541>543-251100-
LAKESHORE

STATION/POSITION TIME  TEMP    WIND        PRES    VSBY  WAVE
                       AIR SEA DIR/SP/G                  HT/PER
                 (UTC) (F)     (DEG/KT/KT) (MB)    (MI)  (FT/S)
SHEBOYGAN LKSHOR 0900   70     200/  4/  5 1015.1F
KEWAUNEE LKSHORE 0930   64     180/  4/  4 1014.4F
NORTHPORT PIER   0940   70     150/  4/  6 1014.6S
N MID LAKE BUOY  0850   69 67  190/  8/ 10 1015.5F         1/ 3
S GREEN BAY BUOY 0900   71 70  180/  8/  8 1014.6
SISTER BAY LKSHO 0919   71     170/ 11/ 14   N/A
MENOMINEE LKSHOR 0930   71     180/  7/ 10 1014.3S
$$




USA.gov is the U.S. government's official web portal to all federal, state and local government web resources and services.